Flag for Portugal Weather past 2 weeks in Lisbon, Portugal

Now
70 °F

Rain showers. Partly sunny.


Feels Like: 70 °F
Forecast: 70 / 76 °F
Wind: 23 mph from Southwest

Location: Lisbon Portela Airport

Current Time: Sep 16, 2014 at 3:12:11 PM

Latest Report: Sep 16, 2014 at 2:30 PM


Visibility: 4 mi

Pressure: 29.59 "Hg

Humidity: 88%

Dew point: 66 °F

Location of LisbonLocation

Historic Weather in Lisbon — Graph

°F

Lisbon temperature yesterday

Maximum temperature yesterday: 75 °F (at 4:00 PM)
Minimum temperature yesterday: 66 °F (at 1:30 PM)
Average temperature yesterday: 71 °F

Past Weeks' High & Low Weather Summary

 TemperatureHumidityPressure
High93 °F (Sep 1, 2:30 PM)100% (Sep 6, 7:30 AM)30.07 "Hg (Sep 6, 7:30 AM)
Low61 °F (Sep 5, 7:30 AM)24% (Sep 1, 4:00 PM)29.59 "Hg (Sep 16, 2:00 PM)
Average72 °F80%29.93 "Hg
* Reported Sep 1 2:00 PM — Sep 16 2:00 PM, Lisbon, Weather by CustomWeather, © 2014

Note: Actual official high and low records may vary slightly from our data, if they occured in-between our weather recording intervals... More about our weather records

Advertising

Lisbon weather history for previous 24 hours

 ConditionsComfort  
Time TempWeatherWind HumidityBarometerVisibility
2:00 PM
Sep 16
75 °FBroken clouds.26 mph74%29.59 "HgN/A
1:30 PM75 °FPartly sunny.25 mph69%29.62 "HgN/A
1:00 PM72 °FSprinkles. Partly sunny.22 mph83%29.62 "HgN/A
12:30 PM72 °FPartly sunny.18 mph83%29.62 "HgN/A
12:00 PM73 °FBroken clouds.16 mph78%29.62 "HgN/A
11:48 AM73 °FScattered clouds.15 mph78%29.62 "HgN/A
11:30 AM70 °FBroken clouds.15 mph88%29.62 "HgN/A
11:00 AM70 °FScattered clouds.21 mph83%29.62 "HgN/A
10:46 AM70 °FScattered clouds.20 mph83%29.62 "HgN/A
10:30 AM70 °FLight rain. Broken clouds.17 mph88%29.62 "Hg5 mi
10:00 AM72 °FBroken clouds.15 mph88%29.62 "HgN/A
9:30 AM68 °FBroken clouds.13 mph94%29.62 "HgN/A
9:00 AM64 °FBroken clouds.10 mph94%29.62 "HgN/A
8:30 AM64 °FPartly sunny.12 mph94%29.62 "HgN/A
8:00 AM64 °FPassing clouds.10 mph94%29.62 "HgN/A
7:30 AM64 °FPassing clouds.12 mph94%29.62 "HgN/A
7:00 AM64 °FRain. Passing clouds.16 mph94%29.62 "Hg4 mi
6:30 AM64 °FRain. Passing clouds.16 mph94%29.62 "Hg4 mi
6:00 AM68 °FLight rain. Passing clouds.17 mph83%29.62 "HgN/A
5:30 AM68 °FThunderstorms. Passing clouds.13 mph88%29.62 "HgN/A
5:00 AM68 °FThunderstorms. Passing clouds.17 mph88%29.62 "HgN/A
4:56 AM68 °FThunderstorms. Passing clouds.14 mph88%29.65 "HgN/A
4:00 AM70 °FThundershowers. Passing clouds.14 mph83%29.62 "HgN/A
3:30 AM70 °FPassing clouds.17 mph88%29.65 "HgN/A
3:00 AM70 °FLight rain. Passing clouds.13 mph88%29.68 "HgN/A
2:00 AM70 °FPassing clouds.16 mph83%29.71 "HgN/A
1:30 AM70 °FPassing clouds.12 mph88%29.71 "HgN/A
1:00 AM70 °FPassing clouds.15 mph88%29.71 "HgN/A
12:30 AM70 °FPassing clouds.12 mph88%29.74 "HgN/A
12:00 AM70 °FPassing clouds.13 mph88%29.74 "HgN/A
11:30 PM
Sep 15
70 °FPassing clouds.10 mph88%29.74 "HgN/A
11:00 PM70 °FLight rain. Passing clouds.14 mph94%29.74 "HgN/A
10:30 PM72 °FLight rain. Passing clouds.14 mph83%29.77 "HgN/A
10:00 PM72 °FPassing clouds.12 mph83%29.77 "HgN/A
9:30 PM72 °FLight rain. Passing clouds.15 mph83%29.77 "HgN/A
9:00 PM72 °FScattered showers. Passing clouds.13 mph83%29.77 "HgN/A
8:30 PM72 °FSprinkles. Scattered clouds.17 mph88%29.77 "HgN/A
8:00 PM72 °FPassing clouds.18 mph83%29.80 "HgN/A
7:30 PM72 °FPassing clouds.18 mph83%29.80 "HgN/A
7:00 PM73 °FPassing clouds.17 mph78%29.80 "HgN/A
6:30 PM73 °FScattered clouds.18 mph78%29.80 "HgN/A
6:00 PM75 °FPassing clouds.20 mph74%29.80 "HgN/A
5:30 PM75 °FPassing clouds.18 mph69%29.80 "HgN/A
5:00 PM75 °FScattered clouds.18 mph65%29.80 "HgN/A
4:30 PM75 °FScattered clouds.20 mph69%29.83 "HgN/A
4:00 PM75 °FPartly sunny.21 mph74%29.83 "HgN/A
3:30 PM73 °FPartly sunny.17 mph78%29.83 "HgN/A
3:00 PM73 °FScattered clouds.16 mph83%29.86 "HgN/A
Weather by CustomWeather, © 2014

See weather overviewHow to use our weather pages